| time (UTC) | temp F | wind direction | speed MPH | gust MPH | rain 1hr in | rain 24hr in | rain mn in | humidity % | barometer mb |
| 20260508161546 | 83 | 262 | 0.0 | 5.0 | 0.00 | 0.00 | 0.00 | 21 | 995.9 |
| 20260508160036 | 82 | 294 | 0.0 | 2.0 | 0.00 | 0.00 | 0.00 | 22 | 995.9 |
| 20260508154541 | 82 | 267 | 0.0 | 2.0 | 0.00 | 0.00 | 0.00 | 19 | 995.9 |
| 20260508153035 | 81 | 263 | 0.0 | 2.0 | 0.00 | 0.00 | 0.00 | 18 | 996.0 |
| 20260508151534 | 82 | 167 | 0.0 | 0.0 | 0.00 | 0.00 | 0.00 | 17 | 996.1 |
| 20260508150034 | 79 | 148 | 0.0 | 1.0 | 0.00 | 0.00 | 0.00 | 19 | 996.1 |
| 20260508144544 | 77 | 195 | 0.0 | 2.0 | 0.00 | 0.00 | 0.00 | 20 | 996.1 |
| 20260508143025 | 76 | 125 | 0.0 | 4.0 | 0.00 | 0.00 | 0.00 | 20 | 996.0 |
| 20260508141525 | 75 | 96 | 0.0 | 2.0 | 0.00 | 0.00 | 0.00 | 19 | 995.9 |
| 20260508140023 | 75 | 109 | 0.0 | 1.0 | 0.00 | 0.00 | 0.00 | 22 | 995.7 |
| 20260508134527 | 71 | 109 | 0.0 | 2.0 | 0.00 | 0.00 | 0.00 | 23 | 995.4 |
| 20260508133029 | 71 | 101 | 0.0 | 0.0 | 0.00 | 0.00 | 0.00 | 22 | 995.4 |
| 20260508131516 | 70 | 98 | 0.0 | 2.0 | 0.00 | 0.00 | 0.00 | 21 | 995.1 |
| 20260508130014 | 69 | 103 | 0.0 | 2.0 | 0.00 | 0.00 | 0.00 | 21 | 995.0 |
| 20260508124512 | 68 | 101 | 0.0 | 2.0 | 0.00 | 0.00 | 0.00 | 22 | 994.8 |
| 20260508123010 | 68 | 102 | 0.0 | 1.0 | 0.00 | 0.00 | 0.00 | 22 | 994.6 |
| 20260508121509 | 69 | 109 | 0.0 | 2.0 | 0.00 | 0.00 | 0.00 | 22 | 994.5 |
| 20260508120006 | 68 | 109 | 0.0 | 1.0 | 0.00 | 0.00 | 0.00 | 22 | 994.3 |
| 20260508114503 | 69 | 158 | 0.0 | 0.0 | 0.00 | 0.00 | 0.00 | 23 | 994.3 |
| 20260508113001 | 70 | 158 | 0.0 | 2.0 | 0.00 | 0.00 | 0.00 | 22 | 994.1 |
| 20260508111607 | 71 | 211 | 0.0 | 6.0 | 0.00 | 0.00 | 0.00 | 21 | 993.9 |
| 20260508110058 | 73 | 143 | 2.0 | 5.0 | 0.00 | 0.00 | 0.00 | 19 | 993.8 |
| 20260508104552 | 74 | 140 | 2.0 | 7.0 | 0.00 | 0.00 | 0.00 | 21 | 993.7 |
| 20260508103059 | 74 | 122 | 0.0 | 5.0 | 0.00 | 0.00 | 0.00 | 22 | 993.7 |
| 20260508101559 | 74 | 112 | 0.0 | 4.0 | 0.00 | 0.00 | 0.00 | 23 | 993.6 |
| 20260508100052 | 75 | 142 | 2.0 | 7.0 | 0.00 | 0.00 | 0.00 | 21 | 993.6 |
| 20260508094550 | 77 | 136 | 1.0 | 2.0 | 0.00 | 0.00 | 0.00 | 20 | 993.4 |
| 20260508093049 | 78 | 138 | 2.0 | 5.0 | 0.00 | 0.00 | 0.00 | 19 | 993.4 |
| 20260508091557 | 77 | 134 | 2.0 | 6.0 | 0.00 | 0.00 | 0.00 | 19 | 993.5 |
| 20260508090101 | 77 | 105 | 2.0 | 7.0 | 0.00 | 0.00 | 0.00 | 18 | 993.6 |
| 20260508084548 | 74 | 132 | 1.0 | 6.0 | 0.00 | 0.00 | 0.00 | 22 | 993.6 |
| 20260508083045 | 76 | 20 | 0.0 | 6.0 | 0.00 | 0.00 | 0.00 | 18 | 993.5 |
| 20260508081544 | 75 | 46 | 4.0 | 6.0 | 0.00 | 0.00 | 0.00 | 20 | 993.7 |
| 20260508080046 | 74 | 113 | 2.0 | 8.0 | 0.00 | 0.00 | 0.00 | 23 | 993.8 |
| 20260508074542 | 75 | 69 | 0.0 | 0.0 | 0.00 | 0.00 | 0.00 | 18 | 993.7 |
| 20260508073037 | 76 | 67 | 0.0 | 2.0 | 0.00 | 0.00 | 0.00 | 18 | 993.5 |
| 20260508071634 | 77 | 24 | 0.0 | 4.0 | 0.00 | 0.00 | 0.00 | 18 | 993.5 |
| 20260508070030 | 77 | 285 | 0.0 | 2.0 | 0.00 | 0.00 | 0.00 | 17 | 993.5 |
| 20260508064532 | 79 | 264 | 1.0 | 4.0 | 0.00 | 0.00 | 0.00 | 16 | 993.4 |
| 20260508063029 | 80 | 106 | 1.0 | 3.0 | 0.00 | 0.00 | 0.00 | 15 | 993.3 |
| 20260508061529 | 81 | 109 | 0.0 | 1.0 | 0.00 | 0.00 | 0.00 | 17 | 993.4 |
| 20260508060031 | 81 | 103 | 0.0 | 2.0 | 0.00 | 0.00 | 0.00 | 15 | 993.3 |
| 20260508054528 | 82 | 78 | 1.0 | 3.0 | 0.00 | 0.00 | 0.00 | 14 | 993.3 |
| 20260508053045 | 83 | 98 | 2.0 | 5.0 | 0.00 | 0.00 | 0.00 | 13 | 993.3 |
| 20260508051527 | 84 | 88 | 3.0 | 6.0 | 0.00 | 0.00 | 0.00 | 13 | 993.4 |
| 20260508050031 | 83 | 100 | 1.0 | 3.0 | 0.00 | 0.00 | 0.00 | 15 | 993.4 |
| 20260508044526 | 84 | 90 | 0.0 | 2.0 | 0.00 | 0.00 | 0.00 | 15 | 993.4 |
| 20260508043025 | 84 | 100 | 1.0 | 2.0 | 0.00 | 0.00 | 0.00 | 16 | 993.3 |
| 20260508041547 | 85 | 114 | 0.0 | 1.0 | 0.00 | 0.00 | 0.00 | 17 | 993.3 |
| 20260508040027 | 86 | 101 | 0.0 | 1.0 | 0.00 | 0.00 | 0.00 | 16 | 993.1 |
| 20260508034531 | 86 | 238 | 0.0 | 1.0 | 0.00 | 0.00 | 0.00 | 17 | 992.9 |
| 20260508033027 | 87 | 238 | 0.0 | 1.0 | 0.00 | 0.00 | 0.00 | 17 | 992.7 |
| 20260508031523 | 89 | 244 | 0.0 | 1.0 | 0.00 | 0.00 | 0.00 | 15 | 992.6 |
| 20260508030030 | 90 | 248 | 0.0 | 4.0 | 0.00 | 0.00 | 0.00 | 15 | 992.5 |
| 20260508024522 | 92 | 240 | 0.0 | 2.0 | 0.00 | 0.00 | 0.00 | 15 | 992.3 |
| 20260508023015 | 95 | 319 | 0.0 | 1.0 | 0.00 | 0.00 | 0.00 | 10 | 992.0 |
| 20260508021515 | 96 | 332 | 0.0 | 1.0 | 0.00 | 0.00 | 0.00 | 9 | 991.9 |
| 20260508020057 | 98 | 328 | 0.0 | 6.0 | 0.00 | 0.00 | 0.00 | 9 | 991.8 |
| 20260508014557 | 98 | 325 | 0.0 | 4.0 | 0.00 | 0.00 | 0.00 | 10 | 991.8 |
| 20260508013055 | 98 | 28 | 4.0 | 6.0 | 0.00 | 0.00 | 0.00 | 10 | 991.8 |
| 20260508011558 | 98 | 323 | 4.0 | 7.0 | 0.00 | 0.00 | 0.00 | 9 | 991.8 |
| 20260508010053 | 99 | 24 | 0.0 | 4.0 | 0.00 | 0.00 | 0.00 | 9 | 991.7 |
| 20260508004556 | 98 | 355 | 6.0 | 10.0 | 0.00 | 0.00 | 0.00 | 10 | 991.8 |
| 20260508003102 | 98 | 317 | 8.0 | 13.0 | 0.00 | 0.00 | 0.00 | 10 | 991.8 |
| 20260508001551 | 98 | 333 | 6.0 | 12.0 | 0.00 | 0.00 | 0.00 | 9 | 991.9 |
| 20260508000047 | 98 | 328 | 5.0 | 13.0 | 0.00 | 0.00 | 0.00 | 10 | 992.1 |
| 20260507234546 | 98 | 17 | 10.0 | 14.0 | 0.00 | 0.00 | 0.00 | 10 | 992.2 |
| 20260507233056 | 97 | 61 | 5.0 | 13.0 | 0.00 | 0.00 | 0.00 | 9 | 992.3 |
| 20260507231541 | 97 | 48 | 8.0 | 15.0 | 0.00 | 0.00 | 0.00 | 8 | 992.4 |
| 20260507230040 | 97 | 36 | 4.0 | 15.0 | 0.00 | 0.00 | 0.00 | 10 | 992.6 |
| 20260507224541 | 97 | 329 | 2.0 | 12.0 | 0.00 | 0.00 | 0.00 | 9 | 992.8 |
| 20260507223034 | 97 | 296 | 3.0 | 12.0 | 0.00 | 0.00 | 0.00 | 9 | 993.1 |
| 20260507221536 | 97 | 303 | 4.0 | 12.0 | 0.00 | 0.00 | 0.00 | 8 | 993.3 |
| 20260507220030 | 97 | 337 | 4.0 | 13.0 | 0.00 | 0.00 | 0.00 | 8 | 993.7 |
| 20260507214528 | 97 | 336 | 5.0 | 9.0 | 0.00 | 0.00 | 0.00 | 9 | 994.0 |
| 20260507213033 | 97 | 267 | 8.0 | 13.0 | 0.00 | 0.00 | 0.00 | 9 | 994.3 |
| 20260507211523 | 97 | 339 | 9.0 | 15.0 | 0.00 | 0.00 | 0.00 | 10 | 994.6 |
| 20260507210019 | 97 | 313 | 3.0 | 12.0 | 0.00 | 0.00 | 0.00 | 10 | 994.8 |
| 20260507204521 | 96 | 335 | 9.0 | 16.0 | 0.00 | 0.00 | 0.00 | 11 | 995.1 |
| 20260507203014 | 95 | 331 | 8.0 | 16.0 | 0.00 | 0.00 | 0.00 | 10 | 995.3 |
| 20260507201516 | 95 | 40 | 11.0 | 16.0 | 0.00 | 0.00 | 0.00 | 12 | 995.5 |
| 20260507200014 | 95 | 345 | 9.0 | 22.0 | 0.00 | 0.00 | 0.00 | 12 | 995.6 |
| 20260507194511 | 95 | 331 | 11.0 | 20.0 | 0.00 | 0.00 | 0.00 | 13 | 995.8 |
| 20260507193014 | 94 | 324 | 12.0 | 22.0 | 0.00 | 0.00 | 0.00 | 13 | 996.1 |
| 20260507191507 | 95 | 331 | 9.0 | 13.0 | 0.00 | 0.00 | 0.00 | 11 | 996.3 |
| 20260507190004 | 93 | 30 | 8.0 | 14.0 | 0.00 | 0.00 | 0.00 | 12 | 996.6 |
| 20260507184600 | 92 | 45 | 8.0 | 12.0 | 0.00 | 0.00 | 0.00 | 10 | 996.9 |
| 20260507183057 | 92 | 334 | 6.0 | 13.0 | 0.00 | 0.00 | 0.00 | 11 | 997.1 |
| 20260507181558 | 91 | 355 | 9.0 | 15.0 | 0.00 | 0.00 | 0.00 | 11 | 997.3 |
| 20260507180053 | 90 | 302 | 10.0 | 20.0 | 0.00 | 0.00 | 0.00 | 10 | 997.5 |
| 20260507174558 | 90 | 325 | 11.0 | 20.0 | 0.00 | 0.00 | 0.00 | 10 | 997.7 |
| 20260507173118 | 89 | 13 | 10.0 | 16.0 | 0.00 | 0.00 | 0.00 | 11 | 997.8 |
| 20260507171554 | 88 | 20 | 10.0 | 18.0 | 0.00 | 0.00 | 0.00 | 13 | 998.0 |
| 20260507170043 | 86 | 294 | 4.0 | 8.0 | 0.00 | 0.00 | 0.00 | 20 | 998.1 |
| 20260507164547 | 82 | 320 | 1.0 | 5.0 | 0.00 | 0.00 | 0.00 | 24 | 998.3 |
| 20260507163036 | 81 | 271 | 1.0 | 6.0 | 0.00 | 0.00 | 0.00 | 27 | 998.5 |